Regional Weather Roundup
Issued by NWS

Home | Current Version | Previous Version | Graphics & Text | Print | Product List | Glossary On
Versions: 1 2 3 4 5 6 7 8 9 10 11 12 13 14 15 16 17 18 19 20 21 22 23 24 25 26 27 28 29 30 31 32 33 34 35 36 37 38 39 40 41 42 43 44 45 46 47 48 49 50
000
ASUS45 KSLC 100110
RWRUT

UTAH REGIONAL WEATHER ROUNDUP
NATIONAL WEATHER SERVICE SALT LAKE CITY UT
600 PM MST TUE FEB 09 2016

UTZ001>011-023>025-100200-

NORTHERN UTAH

CITY           SKY/WX    TMP DP  RH WIND       PRES   REMARKS
BRIGHAM CITY   MOCLDY    30  25  81 CALM      30.52R
HILL AFB       NOT AVBL
LOGAN          MOCLDY    19  13  77 CALM      30.52S HAZE
OGDEN          PTCLDY    32  25  75 NW3       30.49F
PROVO AIRPORT  CLEAR     28  21  74 CALM      30.51F
SALT LAKE CITY PTCLDY    35  28  75 NW6       30.50S HAZE    WCI  30
VERNAL         CLOUDY    20  14  77 CALM      30.49S HAZE
WENDOVER       CLOUDY    34  28  80 CALM      30.52S
HEBER CITY     PTCLDY    21  16  79 CALM      30.45F
WEST JORDAN    CLEAR     32  28  86 NW6       30.49F WCI  26

$$

UTZ012>022-026-027-100200-

SOUTHERN/CENTRAL UTAH

CITY           SKY/WX    TMP DP  RH WIND       PRES   REMARKS
BLANDING       CLEAR     46  24  42 W3        30.46S
BRYCE CANYON   PTCLDY    34  19  54 N5        30.47S WCI  30
CEDAR CITY     PTCLDY    38  25  59 CALM      30.44S
DELTA          MOCLDY    22  20  93 S3        30.50S
HANKSVILLE     CLEAR     37  30  75 N3        30.47S
MILFORD        MOCLDY    23  18  81 N6        30.47S WCI  16
MOAB/CYNLANDS  CLEAR     31  24  75 CALM      30.44S
PRICE          CLEAR     39  20  46 CALM      30.43S
ST GEORGE      PTCLDY    61  28  29 NW3       30.34S
KANAB          CLEAR     50  28  43 NE3       30.39S

$$

REGIONAL REPORTS     COLORADO/ARIZONA

CITY           SKY/WX    TMP DP  RH WIND       PRES   REMARKS
CRAIG, CO      CLOUDY    15  10  80 SW3       30.47F
GRAND JUNCTION CLEAR     33  27  78 NE3       30.44F
RIFLE          CLOUDY    31  21  66 S3        30.45R
MONTROSE       CLOUDY    38  24  57 E5        30.47R WCI  34
CORTEZ         CLEAR     39  27  62 CALM      30.38R
PAGE, AZ       CLEAR     50  26  39 N5        30.39R
GRAND CANYON   CLEAR     49  10  20 NE7       30.41F
KINGMAN        CLEAR     63  24  22 NE6       30.27R
FLAGSTAFF      PTCLDY    48  16  27 E8        30.41R

$$

REGIONAL REPORTS    NEVADA/IDAHO/WYOMING

CITY           SKY/WX    TMP DP  RH WIND       PRES   REMARKS
LAS VEGAS, NV  CLEAR     71  25  17 CALM      30.22S
ELY            PTCLDY    29  22  75 S10       30.45S WCI  20
ELKO           CLOUDY    30  21  69 E7        30.45F WCI  23
POCATELLO, ID  CLOUDY    27  23  85 NE5       30.49F WCI  22
BURLEY         PTCLDY    32  27  81 NE10      30.43F WCI  24
EVANSTON, WY   CLOUDY    33  23  66 CALM      30.46F
ROCK SPRINGS   CLOUDY    37  25  61 SW15      30.41S WCI  28
KEMMERER       CLOUDY    32  23  69 NW7       30.44F WCI  26

$$



USA.gov is the U.S. government's official web portal to all federal, state and local government web resources and services.